Showing default

SSTL S1-4, 43618

Orbit data source: Space-Track

SSTL S1-4, 43618 is a payload satellite owned by SSTL (Astrium) (UK) in SSO that was launched on Sun, 16 Sep 2018 UTC via a PSLV launch vehicle from the Sirharikota (SRI). Payload-class satellites include a variety of spacecraft equipped with specific instruments for various scientific and technological missions. These include communications satellites like Starlink; space stations such as the ISS; scientific satellites like the Hubble; Earth observation satellites from companies like Planet Labs, Umbra, and HawkEye 360; GPS; miniature CubeSats for education and research; and military/defense satellites.

Loading next visibility...
Identifier
43618, 2018-071A
Orbit
SSO
Country
Flag of UKUK
Related business
Manufacturer
SSTL (Astrium)
Mission
Operational Commercial Imaging
Bus & Motor
SSTL-300S1, Unknown motor
Mass
444 kg wet, 400 kg dry
Launch date (UTC)
2018-09-16 (8 years ago)
Launch vehicle
PSLV
Launch site
Sirharikota (SRI)
Object type
Payload
Rocket body
Debris
Shape & HBR
Hept Cone + Cyl, 1.3 m
Radar Cross Section
2.356 m², Large (>1 m²)

Expand to show TLE details & history
Last TLE update: 21 hours ago

TLE from 21 hours ago
0 SSTL S1-4
1 43618U 18071A   26172.56915878  .00000314  00000-0  32729-4 0  9991
2 43618  97.5014  44.0005 0001333 116.5212 243.6147 14.96182009423591
Epoch: 2026-06-21T13:39Z
TLE epoch observation values (Epoch: 2026-06-21T13:39:35.318Z)
Latitude
-0°
Longitude
-70.66421°
Altitude
582.174 km
Speed
7.569 km/s
True Right ascension
02h 56m 00s
True Declination
0° 00' 00"
Sunlit
Object was in daylight at epoch
Visualization orbit readout
Latitude
Unknown
Longitude
Unknown
Altitude
Unknown
Speed
Unknown
Apparent Right ascension
Unknown
Apparent Declination
Unknown
Sunlit
N/A
Visualization observer readout
Local Sidereal Time
21:40:27
Azimuth
Unknown
Elevation
Unknown
Doppler factor
Unknown
Orbital elements
Apogee altitude
576.635 km
Perigee altitude
574.781 km
Semi-major axis
6,953.845 km
Eccentricity
0.00013
Inclination
97.5014°
RAAN
44.0005°
Arg. of periapsis
116.5212°
True anomaly
243.60102°
Mean anomaly
243.6147°
Eccentric anomaly
243.60786°
Mean motion
3.74288 °/min
Orbital period
96.18 mins
BSTAR
0.000032729
Loading maneuver chart data...
Computing Atmospheric mass density...
Loading historical data...
Loading historical data...
Loading historical data...
Loading historical data...
Loading historical data...
Loading historical data...
Loading historical data...
Other satellites on launch #71 in the year 2018 (2018-09-16 UTC)

Documentation

Showing up to 5 results
|